"startDT [UTC]","vpos","CH4 [ppm]","stdev(CH4) [ppm]","CO2 [ppm]","stdev(CO2) [ppm]","H2O [ppm]","stdev(H2O)","p_LGR [torr]","T_LGR [C]","mt1_LGR [us]","mt2_LGR [us]","T_ECpre [C]","T_EC1 [C]","T_EC2 [C]","p_inlet [hPa]","p_in [hPa]","p_out [hPa]","T_inlet [C]","RH_inlet [%]","dwpt_inlet [C]","T_vent [C]","RH_vent [%]","dwpt_vent [C]","flow_vent [l min-1]","flow_inlet [l min-1]","dwpt_sample [C]","T_room [C]"
2012-05-11 00:00:00,0.0,1.8974,0.0011,405.03,0.36,55.3,42.7,138.21,23.75,24.58,36.32,0.04,-272.73,-272.73,-50,548,-919,18.5,15.0,-8.6,18.7,15.5,-8.1,5.73,2.43,-26.4,24.1
2012-05-11 00:01:00,0.0,1.8976,0.0011,405.08,0.36,50.2,34.2,138.21,23.75,24.58,36.31,0.04,-272.73,-272.74,-49,547,-918,18.5,15.0,-8.6,18.7,15.5,-8.1,5.73,2.44,-26.4,24.1
2012-05-11 00:02:00,0.0,1.8974,0.0010,405.05,0.40,58.9,45.8,138.21,23.75,24.58,36.31,0.04,-272.73,-272.73,-50,548,-918,18.5,15.0,-8.7,18.7,15.4,-8.1,5.73,2.30,-26.4,24.1
2012-05-11 00:03:00,0.0,1.8970,0.0011,405.04,0.38,42.7,35.5,138.21,23.75,24.58,36.31,0.04,-272.73,-272.73,-50,548,-919,18.5,15.0,-8.7,18.7,15.4,-8.1,5.73,2.45,-26.4,24.1
2012-05-11 00:04:00,0.0,1.8971,0.0010,404.93,0.33,51.8,47.1,138.21,23.75,24.58,36.32,0.04,-272.73,-272.74,-49,547,-919,18.5,15.0,-8.7,18.7,15.4,-8.1,5.73,2.41,-26.4,24.0
2012-05-11 00:05:00,0.0,1.8971,0.0010,405.12,0.31,52.0,45.9,138.21,23.75,24.58,36.31,0.04,-272.73,-272.74,-50,547,-918,18.5,14.9,-8.7,18.7,15.4,-8.1,5.73,2.30,-26.4,24.0
2012-05-11 00:06:00,0.0,1.8969,0.0011,405.00,0.32,43.5,43.6,138.21,23.75,24.58,36.32,0.04,-272.73,-272.73,-49,548,-919,18.5,15.0,-8.7,18.8,15.4,-8.1,5.73,2.47,-26.4,24.0
2012-05-11 00:07:00,0.0,1.8979,0.0012,405.11,0.39,55.9,46.4,138.21,23.75,24.58,36.31,0.04,-272.73,-272.74,-50,548,-919,18.5,15.0,-8.7,18.7,15.4,-8.1,5.73,2.39,-26.4,24.0
2012-05-11 00:08:00,0.0,1.8984,0.0009,405.11,0.37,52.5,40.0,138.21,23.75,24.58,36.31,0.04,-272.73,-272.73,-50,547,-918,18.5,15.0,-8.6,18.8,15.4,-8.0,5.73,2.32,-26.4,24.0
2012-05-11 00:09:00,0.0,1.8975,0.0011,404.95,0.39,58.4,44.4,138.21,23.76,24.59,36.32,0.04,-272.73,-272.74,-49,548,-918,18.5,15.0,-8.7,18.7,15.4,-8.1,5.73,2.48,-26.4,24.0
2012-05-11 00:10:00,0.0,1.8976,0.0012,405.07,0.38,59.8,47.6,138.21,23.76,24.59,36.31,0.04,-272.74,-272.73,-50,548,-919,18.5,15.1,-8.6,18.7,15.5,-8.0,5.73,2.36,-26.4,24.0
2012-05-11 00:11:00,0.0,1.8976,0.0010,405.22,0.34,55.3,42.7,138.21,23.76,24.59,36.31,0.04,-272.74,-272.74,-49,548,-919,18.5,15.1,-8.6,18.7,15.5,-8.0,5.73,2.34,-26.4,24.1
2012-05-11 00:12:00,0.0,1.8976,0.0012,405.09,0.33,54.0,47.6,138.21,23.76,24.59,36.32,0.04,-272.73,-272.73,-50,547,-918,18.5,15.0,-8.7,18.7,15.4,-8.1,5.73,2.49,-26.3,24.1
2012-05-11 00:13:00,0.0,1.8974,0.0010,405.19,0.40,45.8,38.8,138.21,23.76,24.59,36.31,0.04,-272.73,-272.74,-49,547,-918,18.5,15.0,-8.6,18.7,15.5,-8.0,5.73,2.34,-26.3,24.1
2012-05-11 00:14:00,0.0,1.8975,0.0011,405.10,0.40,57.1,44.1,138.21,23.76,24.58,36.32,0.04,-272.73,-272.73,-49,548,-918,18.5,15.1,-8.6,18.7,15.5,-8.0,5.73,2.36,-26.4,24.0
2012-05-11 00:15:00,0.0,1.8973,0.0010,405.12,0.32,51.2,41.9,138.21,23.76,24.59,36.32,0.04,-272.73,-272.73,-50,548,-919,18.5,15.0,-8.6,18.7,15.5,-8.0,5.73,2.48,-26.3,24.0
2012-05-11 00:16:00,0.0,1.8970,0.0011,405.04,0.36,41.6,38.9,138.21,23.76,24.58,36.32,0.04,-272.73,-272.74,-49,548,-918,18.5,15.1,-8.6,18.7,15.5,-8.0,5.73,2.32,-26.3,24.1
2012-05-11 00:17:00,0.0,1.8969,0.0013,405.06,0.35,49.7,46.7,138.21,23.76,24.58,36.32,0.04,-272.73,-272.73,-50,548,-918,18.5,15.1,-8.6,18.7,15.5,-8.0,5.73,2.38,-26.3,24.1
2012-05-11 00:18:00,0.0,1.8964,0.0012,404.98,0.47,60.0,45.5,138.21,23.76,24.59,36.32,0.04,-272.73,-272.74,-49,548,-918,18.5,15.0,-8.6,18.7,15.4,-8.1,5.73,2.47,-26.3,24.0
2012-05-11 00:19:00,0.0,1.8964,0.0010,404.90,0.37,57.6,48.1,138.21,23.76,24.59,36.32,0.04,-272.73,-272.73,-50,548,-919,18.5,15.0,-8.7,18.7,15.4,-8.1,5.73,2.31,-26.3,24.1
2012-05-11 00:20:00,0.0,1.8973,0.0012,405.01,0.39,52.8,39.9,138.21,23.76,24.58,36.32,0.04,-272.73,-272.73,-50,548,-918,18.5,15.0,-8.7,18.7,15.4,-8.1,5.73,2.40,-26.3,24.1
2012-05-11 00:21:00,0.0,1.8966,0.0010,404.99,0.39,51.3,43.6,138.21,23.76,24.59,36.32,0.04,-272.74,-272.74,-49,548,-918,18.5,14.9,-8.7,18.7,15.3,-8.2,5.73,2.47,-26.3,24.1
2012-05-11 00:22:00,0.0,1.8969,0.0013,405.11,0.36,55.6,43.1,138.21,23.76,24.58,36.31,0.04,-272.73,-272.73,-50,548,-918,18.5,14.8,-8.9,18.8,15.2,-8.3,5.73,2.30,-26.3,24.1
2012-05-11 00:23:00,0.0,1.8971,0.0011,404.97,0.38,53.0,42.5,138.21,23.76,24.58,36.32,0.04,-272.73,-272.73,-49,548,-919,18.5,14.7,-8.9,18.8,15.1,-8.3,5.73,2.42,-26.3,24.1
2012-05-11 00:24:00,0.0,1.8966,0.0012,405.10,0.45,49.9,39.4,138.21,23.76,24.59,36.32,0.04,-272.73,-272.74,-50,548,-918,18.5,14.8,-8.9,18.8,15.1,-8.3,5.73,2.45,-26.3,24.1
2012-05-11 00:25:00,0.0,1.8969,0.0011,405.11,0.35,46.2,37.0,138.21,23.76,24.58,36.31,0.04,-272.73,-272.73,-50,548,-918,18.5,14.8,-8.8,18.7,15.2,-8.3,5.73,2.30,-26.3,24.1
2012-05-11 00:26:00,0.0,1.8970,0.0010,405.07,0.40,45.8,42.6,138.21,23.77,24.58,36.31,0.04,-272.73,-272.73,-49,548,-918,18.5,14.8,-8.8,18.7,15.2,-8.2,5.73,2.43,-26.3,24.1
2012-05-11 00:27:00,0.0,1.8981,0.0011,405.19,0.40,57.0,44.7,138.21,23.77,24.58,36.31,0.04,-272.73,-272.74,-50,548,-919,18.5,14.8,-8.8,18.7,15.2,-8.2,5.73,2.44,-26.3,24.1
2012-05-11 00:28:00,0.0,1.8981,0.0011,405.04,0.41,57.7,46.8,138.21,23.77,24.58,36.32,0.04,-272.73,-272.74,-49,547,-918,18.5,14.9,-8.7,18.7,15.3,-8.2,5.73,2.30,-26.3,24.1
2012-05-11 00:29:00,0.0,1.8983,0.0010,405.11,0.38,66.8,46.7,138.21,23.77,24.58,36.32,0.04,-272.73,-272.73,-49,548,-918,18.5,14.9,-8.8,18.7,15.3,-8.2,5.73,2.44,-26.3,24.1
2012-05-11 00:30:00,0.0,1.8986,0.0012,405.02,0.36,79.9,47.3,138.21,23.77,24.58,36.32,0.04,-272.73,-272.74,-50,548,-918,18.5,14.8,-8.8,18.8,15.2,-8.3,5.73,2.42,-26.3,24.1
2012-05-11 00:31:00,0.0,1.8979,0.0010,405.08,0.41,64.5,47.6,138.21,23.78,24.59,36.32,0.04,-272.73,-272.74,-49,548,-919,18.5,14.7,-8.9,18.7,15.1,-8.4,5.73,2.30,-26.3,24.1
2012-05-11 00:32:00,0.0,1.8980,0.0009,405.05,0.36,59.9,43.4,138.21,23.78,24.59,36.32,0.04,-272.73,-272.73,-50,548,-918,18.5,14.8,-8.8,18.8,15.1,-8.3,5.73,2.45,-26.3,24.1
2012-05-11 00:33:00,0.0,1.8977,0.0011,405.05,0.35,61.3,39.6,138.21,23.78,24.58,36.32,0.04,-272.73,-272.73,-50,548,-918,18.5,14.7,-8.8,18.8,15.1,-8.3,5.73,2.42,-26.3,24.1
2012-05-11 00:34:00,0.0,1.8973,0.0011,405.14,0.38,71.1,51.4,138.21,23.79,24.59,36.32,0.04,-272.73,-272.74,-49,548,-918,18.5,14.7,-8.9,18.8,15.1,-8.4,5.73,2.30,-26.3,24.1
2012-05-11 00:35:00,0.0,1.8972,0.0011,405.05,0.39,48.3,41.4,138.21,23.79,24.59,36.32,0.04,-272.73,-272.73,-50,548,-919,18.5,14.7,-8.8,18.8,15.1,-8.3,5.73,2.44,-26.3,24.1
2012-05-11 00:36:00,0.0,1.8970,0.0011,405.14,0.35,69.1,35.3,138.21,23.79,24.59,36.32,0.04,-272.73,-272.73,-49,548,-918,18.5,14.8,-8.8,18.8,15.1,-8.3,5.73,2.43,-26.3,24.2
2012-05-11 00:37:00,0.0,1.8970,0.0013,404.97,0.36,53.2,45.5,138.21,23.79,24.59,36.32,0.04,-272.73,-272.73,-50,548,-918,18.5,14.6,-8.9,18.8,15.0,-8.3,5.73,2.30,-26.3,24.1
2012-05-11 00:38:00,0.0,1.8974,0.0011,405.07,0.39,65.1,42.0,138.21,23.79,24.59,36.31,0.04,-272.73,-272.73,-50,548,-918,18.5,14.5,-9.0,18.8,14.9,-8.5,5.73,2.45,-26.3,24.2
2012-05-11 00:39:00,0.0,1.8983,0.0013,404.98,0.39,81.0,43.8,138.21,23.79,24.58,36.32,0.04,-272.73,-272.73,-49,548,-919,18.5,14.5,-9.0,18.8,14.9,-8.5,5.73,2.42,-26.3,24.1
2012-05-11 00:40:00,0.0,1.8980,0.0013,405.03,0.36,72.8,45.7,138.21,23.79,24.59,36.32,0.04,-272.73,-272.73,-50,548,-918,18.5,14.6,-8.9,18.8,15.0,-8.4,5.73,2.30,-26.3,24.1
2012-05-11 00:41:00,0.0,1.8982,0.0013,404.88,0.39,82.9,50.7,138.21,23.79,24.58,36.32,0.04,-272.73,-272.74,-49,548,-918,18.5,14.7,-8.9,18.8,15.1,-8.3,5.73,2.45,-26.3,24.1
2012-05-11 00:42:00,0.0,1.8978,0.0010,405.08,0.37,75.5,48.3,138.21,23.80,24.59,36.32,0.04,-272.73,-272.74,-50,548,-918,18.5,14.6,-8.9,18.8,15.0,-8.4,5.73,2.42,-26.3,24.1
2012-05-11 00:43:00,0.0,1.8973,0.0011,404.90,0.40,70.6,42.5,138.21,23.80,24.59,36.32,0.04,-272.73,-272.73,-50,548,-919,18.5,14.5,-9.0,18.8,14.9,-8.5,5.73,2.30,-26.3,24.1
2012-05-11 00:44:00,0.0,1.8977,0.0011,405.03,0.37,73.5,44.0,138.21,23.80,24.59,36.31,0.04,-272.73,-272.74,-49,548,-918,18.5,14.5,-9.0,18.8,14.9,-8.5,5.73,2.45,-26.3,24.1
2012-05-11 00:45:00,0.0,1.8984,0.0011,405.06,0.41,81.6,52.5,138.21,23.80,24.58,36.31,0.04,-272.73,-272.73,-50,548,-918,18.5,14.4,-9.1,18.8,14.8,-8.5,5.73,2.41,-26.3,24.2
2012-05-11 00:46:00,0.0,1.8975,0.0010,405.01,0.37,71.8,43.2,138.21,23.81,24.59,36.31,0.04,-272.73,-272.73,-49,548,-918,18.5,14.5,-9.0,18.8,14.9,-8.5,5.73,2.30,-26.3,24.1
2012-05-11 00:47:00,0.0,1.8980,0.0012,405.02,0.32,83.9,39.4,138.21,23.81,24.59,36.32,0.04,-272.73,-272.73,-50,548,-919,18.5,14.5,-9.0,18.8,14.9,-8.4,5.73,2.45,-26.3,24.2
2012-05-11 00:48:00,0.0,1.8981,0.0012,404.93,0.40,78.6,46.5,138.21,23.81,24.59,36.32,0.04,-272.73,-272.74,-50,548,-918,18.5,14.5,-9.0,18.8,14.9,-8.5,5.73,2.41,-26.3,24.1
2012-05-11 00:49:00,0.0,1.8980,0.0013,404.98,0.42,87.3,41.2,138.21,23.81,24.59,36.31,0.04,-272.74,-272.73,-49,548,-918,18.5,14.4,-9.2,18.8,14.8,-8.6,5.73,2.30,-26.3,24.2
2012-05-11 00:50:00,0.0,1.8982,0.0011,404.92,0.40,86.8,50.1,138.21,23.81,24.59,36.32,0.04,-272.73,-272.73,-50,548,-918,18.5,14.3,-9.2,18.8,14.7,-8.6,5.73,2.46,-26.3,24.2
2012-05-11 00:51:00,0.0,1.8981,0.0011,404.98,0.38,81.8,45.2,138.21,23.82,24.59,36.32,0.04,-272.74,-272.74,-49,548,-919,18.6,14.3,-9.2,18.8,14.7,-8.6,5.73,2.40,-26.2,24.2
2012-05-11 00:52:00,0.0,1.8980,0.0010,404.93,0.40,80.5,50.5,138.21,23.82,24.58,36.32,0.04,-272.74,-272.74,-50,548,-918,18.6,14.3,-9.2,18.8,14.7,-8.6,5.73,2.30,-26.2,24.2
2012-05-11 00:53:00,0.0,1.8979,0.0011,405.06,0.45,71.8,40.8,138.21,23.82,24.58,36.31,0.04,-272.74,-272.73,-50,548,-918,18.6,14.1,-9.4,18.8,14.5,-8.8,5.73,2.46,-26.3,24.2
2012-05-11 00:54:00,0.0,1.8973,0.0011,404.92,0.36,69.0,42.1,138.21,23.82,24.59,36.32,0.04,-272.74,-272.74,-49,548,-918,18.6,14.2,-9.3,18.8,14.5,-8.8,5.73,2.41,-26.2,24.2
2012-05-11 00:55:00,0.0,1.8975,0.0012,405.03,0.35,66.0,46.1,138.21,23.82,24.59,36.32,0.04,-272.74,-272.73,-50,549,-918,18.6,14.1,-9.3,18.8,14.5,-8.8,5.73,2.30,-26.2,24.2
2012-05-11 00:56:00,0.0,1.8969,0.0011,404.99,0.43,58.6,39.4,138.21,23.82,24.59,36.31,0.04,-272.73,-272.74,-50,548,-919,18.6,14.1,-9.4,18.8,14.5,-8.9,5.73,2.45,-26.3,24.2
2012-05-11 00:57:00,0.0,1.8972,0.0010,404.78,0.45,64.8,44.4,138.21,23.82,24.58,36.33,0.04,-272.73,-272.73,-49,548,-918,18.6,14.0,-9.4,18.8,14.4,-8.9,5.73,2.42,-26.3,24.2
2012-05-11 00:58:00,0.0,1.8973,0.0013,404.99,0.37,63.8,48.2,138.21,23.83,24.59,36.32,0.04,-272.73,-272.74,-50,548,-918,18.6,13.9,-9.5,18.9,14.3,-8.9,5.73,2.30,-26.2,24.2
2012-05-11 00:59:00,0.0,1.8981,0.0012,404.95,0.39,81.4,53.6,138.21,23.83,24.58,36.32,0.04,-272.74,-272.73,-49,549,-918,18.6,13.9,-9.5,18.9,14.3,-8.9,5.73,2.44,-26.2,24.2
2012-05-11 01:00:00,0.0,1.8983,0.0012,404.96,0.32,74.8,47.2,138.21,23.83,24.58,36.32,0.04,-272.73,-272.73,-50,549,-919,18.6,14.0,-9.4,18.9,14.4,-8.8,5.73,2.43,-26.2,24.2
2012-05-11 01:01:00,0.0,1.8979,0.0011,404.92,0.43,81.3,48.8,138.21,23.83,24.59,36.32,0.04,-272.74,-272.74,-50,549,-919,18.6,14.0,-9.5,18.9,14.4,-8.9,5.73,2.30,-26.2,24.2
2012-05-11 01:02:00,0.0,1.8982,0.0010,404.90,0.39,71.7,46.0,138.21,23.84,24.58,36.32,0.04,-272.73,-272.74,-49,548,-918,18.6,13.9,-9.5,18.9,14.3,-8.9,5.73,2.44,-26.2,24.2
2012-05-11 01:03:00,0.0,1.8980,0.0011,404.92,0.39,78.8,41.1,138.21,23.84,24.58,36.32,0.04,-272.73,-272.73,-50,549,-918,18.6,14.0,-9.5,18.9,14.4,-8.9,5.73,2.42,-26.2,24.2
2012-05-11 01:04:00,0.0,1.8982,0.0012,404.89,0.35,70.8,48.2,138.21,23.84,24.58,36.32,0.04,-272.73,-272.73,-49,549,-918,18.6,14.0,-9.4,18.9,14.4,-8.9,5.73,2.30,-26.2,24.2
2012-05-11 01:05:00,0.0,1.8971,0.0010,404.96,0.40,71.5,45.0,138.21,23.84,24.59,36.32,0.04,-272.74,-272.74,-50,549,-919,18.6,13.9,-9.5,18.9,14.3,-8.9,5.73,2.44,-26.2,24.2
2012-05-11 01:06:00,0.0,1.8977,0.0008,404.88,0.42,70.7,47.8,138.21,23.85,24.59,36.32,0.04,-272.73,-272.73,-50,548,-918,18.6,13.8,-9.6,18.9,14.3,-9.0,5.73,2.42,-26.2,24.2
2012-05-11 01:07:00,0.0,1.8983,0.0011,404.95,0.30,77.5,52.7,138.21,23.85,24.58,36.32,0.04,-272.73,-272.73,-49,548,-918,18.6,13.9,-9.5,18.9,14.3,-8.9,5.73,2.30,-26.2,24.2
2012-05-11 01:08:00,0.0,1.8982,0.0008,404.87,0.45,73.2,43.9,138.21,23.85,24.58,36.32,0.04,-272.73,-272.73,-50,549,-918,18.6,13.9,-9.5,18.9,14.3,-8.9,5.73,2.43,-26.2,24.2
2012-05-11 01:09:00,0.0,1.8982,0.0011,404.91,0.42,52.3,39.9,138.21,23.85,24.58,36.32,0.04,-272.73,-272.73,-50,549,-919,18.6,14.0,-9.3,18.9,14.4,-8.8,5.73,2.43,-26.2,24.2
2012-05-11 01:10:00,0.0,1.8984,0.0012,405.01,0.36,63.4,44.3,138.21,23.86,24.58,36.31,0.04,-272.73,-272.73,-50,549,-918,18.7,14.0,-9.4,18.9,14.4,-8.8,5.73,2.30,-26.2,24.2
2012-05-11 01:11:00,0.0,1.8974,0.0011,404.89,0.39,64.5,42.4,138.21,23.86,24.59,36.32,0.04,-272.74,-272.73,-50,548,-918,18.6,14.0,-9.4,18.9,14.4,-8.8,5.73,2.44,-26.1,24.2
2012-05-11 01:12:00,0.0,1.8977,0.0011,404.89,0.45,57.5,45.4,138.21,23.86,24.58,36.32,0.04,-272.73,-272.74,-49,549,-918,18.7,14.1,-9.3,18.9,14.4,-8.8,5.73,2.43,-25.9,24.2
2012-05-11 01:13:00,0.0,1.8978,0.0012,404.88,0.39,57.8,48.2,138.21,23.86,24.59,36.32,0.04,-272.73,-272.73,-50,549,-919,18.7,14.2,-9.2,18.9,14.6,-8.7,5.73,2.30,-25.9,24.2
2012-05-11 01:14:00,0.0,1.8978,0.0011,404.87,0.30,67.2,40.3,138.21,23.86,24.58,36.32,0.04,-272.73,-272.74,-50,549,-919,18.7,14.2,-9.2,18.9,14.6,-8.6,5.73,2.43,-25.9,24.2
2012-05-11 01:15:00,0.0,1.8979,0.0012,405.02,0.43,66.5,44.7,138.21,23.86,24.58,36.31,0.04,-272.74,-272.74,-49,549,-918,18.7,14.2,-9.2,18.9,14.6,-8.6,5.73,2.44,-25.9,24.2
2012-05-11 01:16:00,0.0,1.8985,0.0012,404.91,0.48,79.0,46.6,138.21,23.86,24.58,36.32,0.04,-272.73,-272.73,-50,549,-918,18.7,14.1,-9.2,18.9,14.6,-8.7,5.73,2.30,-25.9,24.1
2012-05-11 01:17:00,0.0,1.8984,0.0012,404.96,0.39,88.9,50.5,138.21,23.86,24.58,36.32,0.04,-272.73,-272.73,-49,549,-919,18.7,14.1,-9.3,18.9,14.5,-8.7,5.73,2.42,-25.9,24.2
2012-05-11 01:18:00,0.0,1.8986,0.0013,405.00,0.40,83.7,46.8,138.21,23.87,24.59,36.31,0.04,-272.73,-272.74,-50,549,-919,18.7,14.0,-9.4,18.9,14.4,-8.8,5.73,2.44,-25.9,24.2
2012-05-11 01:19:00,0.0,1.8985,0.0010,404.87,0.41,85.7,47.0,138.21,23.87,24.58,36.32,0.04,-272.73,-272.73,-50,549,-918,18.7,14.0,-9.4,18.9,14.4,-8.8,5.73,2.30,-25.9,24.2
2012-05-11 01:20:00,0.0,1.8987,0.0010,404.99,0.45,73.7,46.1,138.21,23.87,24.58,36.31,0.04,-272.73,-272.73,-49,549,-918,18.7,14.1,-9.2,18.9,14.5,-8.7,5.73,2.43,-25.9,24.2
2012-05-11 01:21:00,0.0,1.8985,0.0012,405.02,0.35,83.3,47.5,138.21,23.87,24.58,36.31,0.04,-272.73,-272.74,-50,549,-918,18.7,14.2,-9.2,18.9,14.6,-8.6,5.73,2.44,-25.9,24.3
2012-05-11 01:22:00,0.0,1.8988,0.0011,404.98,0.39,88.4,42.8,138.21,23.88,24.58,36.32,0.04,-272.74,-272.73,-49,549,-919,18.7,14.2,-9.1,18.9,14.7,-8.6,5.73,2.30,-25.9,24.3
2012-05-11 01:23:00,0.0,1.8987,0.0012,404.95,0.39,92.0,48.8,138.21,23.88,24.59,36.32,0.04,-272.73,-272.73,-50,549,-918,18.7,14.2,-9.1,18.9,14.6,-8.6,5.73,2.43,-25.9,24.2
2012-05-11 01:24:00,0.0,1.8988,0.0012,404.94,0.35,94.3,50.4,138.21,23.88,24.59,36.31,0.04,-272.73,-272.73,-50,549,-918,18.7,14.2,-9.2,18.9,14.6,-8.6,5.73,2.45,-25.9,24.3
2012-05-11 01:25:00,0.0,1.8985,0.0011,404.90,0.43,91.4,47.1,138.21,23.89,24.59,36.32,0.04,-272.74,-272.74,-49,549,-918,18.7,14.2,-9.2,18.9,14.6,-8.6,5.73,2.29,-25.9,24.2
2012-05-11 01:26:00,0.0,1.8989,0.0010,404.89,0.37,87.6,49.3,138.21,23.89,24.58,36.32,0.04,-272.73,-272.73,-50,549,-919,18.7,14.2,-9.1,18.9,14.6,-8.6,5.73,2.42,-25.9,24.3
2012-05-11 01:27:00,0.0,1.8990,0.0011,404.92,0.35,79.5,46.7,138.21,23.89,24.59,36.32,0.04,-272.73,-272.73,-50,549,-919,18.7,14.2,-9.2,18.9,14.6,-8.6,5.73,2.44,-25.9,24.2
2012-05-11 01:28:00,0.0,1.8992,0.0011,404.74,0.39,95.8,45.4,138.21,23.89,24.58,36.33,0.04,-272.74,-272.74,-50,549,-918,18.7,14.2,-9.1,18.9,14.6,-8.6,5.73,2.30,-25.9,24.2
2012-05-11 01:29:00,0.0,1.8990,0.0009,404.79,0.43,88.2,50.8,138.21,23.90,24.58,36.32,0.04,-272.73,-272.74,-50,549,-918,18.7,14.3,-9.0,18.9,14.8,-8.5,5.73,2.43,-25.9,24.3
2012-05-11 01:30:00,0.0,1.8987,0.0009,404.91,0.40,84.8,57.0,138.21,23.90,24.58,36.32,0.04,-272.73,-272.73,-50,549,-919,18.7,14.3,-9.1,18.9,14.7,-8.5,5.73,2.44,-25.9,24.3
2012-05-11 01:31:00,0.0,1.8987,0.0010,404.90,0.38,65.2,49.7,138.21,23.90,24.58,36.31,0.24,-271.20,-271.57,-50,549,-919,18.7,14.3,-9.1,19.0,14.7,-8.5,5.42,2.38,-30.1,24.3
2012-05-11 01:32:00,0.0,1.8989,0.0012,404.78,0.42,74.4,44.2,138.21,23.91,24.58,36.32,0.04,-272.74,-272.73,-50,549,-918,18.7,14.3,-9.1,19.0,14.7,-8.5,5.73,2.42,-25.9,24.3
2012-05-11 01:33:00,0.0,1.8985,0.0010,404.83,0.38,72.2,48.2,138.21,23.91,24.58,36.32,0.04,-272.73,-272.73,-50,549,-918,18.7,14.2,-9.2,19.0,14.6,-8.6,5.73,2.44,-25.9,24.3
2012-05-11 01:34:00,0.0,1.8986,0.0011,404.89,0.34,62.6,46.5,138.21,23.91,24.58,36.32,0.04,-272.73,-272.73,-50,549,-918,18.7,14.2,-9.2,19.0,14.6,-8.6,5.73,2.29,-25.9,24.3
2012-05-11 01:35:00,0.0,1.8985,0.0010,404.94,0.41,75.4,43.9,138.21,23.91,24.58,36.31,0.04,-272.73,-272.73,-50,549,-918,18.7,14.1,-9.2,19.0,14.5,-8.7,5.73,2.43,-25.9,24.3
2012-05-11 01:36:00,0.0,1.8987,0.0012,404.88,0.39,83.2,49.8,138.21,23.91,24.59,36.32,0.04,-272.73,-272.73,-50,549,-919,18.7,14.2,-9.2,19.0,14.6,-8.6,5.73,2.43,-25.9,24.3
2012-05-11 01:37:00,0.0,1.8992,0.0011,404.85,0.37,78.5,42.7,138.21,23.91,24.58,36.32,0.04,-272.73,-272.73,-50,549,-918,18.7,14.2,-9.1,19.0,14.6,-8.6,5.73,2.30,-25.9,24.3
2012-05-11 01:38:00,0.0,1.8992,0.0009,404.85,0.39,91.6,45.1,138.21,23.91,24.58,36.32,0.04,-272.73,-272.74,-50,549,-918,18.7,14.2,-9.1,19.0,14.6,-8.5,5.73,2.43,-25.9,24.3
2012-05-11 01:39:00,0.0,1.8995,0.0011,404.86,0.38,88.0,45.6,138.21,23.92,24.58,36.32,0.04,-272.73,-272.74,-50,549,-918,18.7,14.1,-9.2,19.0,14.5,-8.6,5.73,2.44,-25.9,24.4
2012-05-11 01:40:00,0.0,1.8987,0.0012,404.83,0.38,79.8,47.2,138.21,23.92,24.58,36.31,0.04,-272.73,-272.73,-50,549,-918,18.7,14.2,-9.2,19.0,14.6,-8.6,5.73,2.30,-25.9,24.3
2012-05-11 01:41:00,0.0,1.8987,0.0009,404.86,0.46,74.5,50.6,138.21,23.92,24.59,36.32,0.04,-272.73,-272.74,-50,549,-918,18.8,14.2,-9.1,19.0,14.6,-8.5,5.73,2.41,-25.9,24.3
2012-05-11 01:42:00,0.0,1.8990,0.0011,404.76,0.40,85.2,48.2,138.21,23.93,24.58,36.32,0.04,-272.73,-272.74,-50,549,-918,18.7,14.3,-9.0,19.0,14.8,-8.4,5.73,2.45,-25.9,24.4
2012-05-11 01:43:00,0.0,1.8994,0.0012,404.94,0.40,82.7,42.0,138.21,23.93,24.59,36.31,0.04,-272.73,-272.73,-50,549,-918,18.8,14.4,-8.9,19.0,14.8,-8.4,5.73,2.31,-25.9,24.4
2012-05-11 01:44:00,0.0,1.8988,0.0011,404.88,0.44,83.3,45.6,138.21,23.93,24.59,36.31,0.04,-272.73,-272.73,-50,550,-918,18.8,14.5,-8.9,19.0,14.9,-8.3,5.73,2.39,-25.9,24.4
2012-05-11 01:45:00,0.0,1.8991,0.0012,404.89,0.31,83.7,50.8,138.21,23.93,24.58,36.31,0.04,-272.73,-272.74,-50,550,-918,18.8,14.2,-9.1,19.0,14.7,-8.5,5.73,2.46,-25.9,24.3
2012-05-11 01:46:00,0.0,1.8990,0.0011,404.88,0.40,87.3,50.5,138.21,23.94,24.59,36.32,0.04,-272.73,-272.73,-50,549,-919,18.8,14.1,-9.2,19.0,14.5,-8.6,5.73,2.31,-25.9,24.3
2012-05-11 01:47:00,0.0,1.8987,0.0010,404.83,0.42,103.7,44.3,138.21,23.94,24.59,36.32,0.04,-272.73,-272.73,-50,549,-918,18.8,14.1,-9.2,19.0,14.5,-8.6,5.73,2.37,-25.9,24.4
2012-05-11 01:48:00,0.0,1.8986,0.0011,404.79,0.43,92.1,40.9,138.21,23.94,24.59,36.32,0.04,-272.73,-272.74,-50,549,-918,18.8,14.2,-9.1,19.0,14.6,-8.5,5.73,2.47,-25.9,24.4
2012-05-11 01:49:00,0.0,1.8987,0.0010,404.85,0.39,84.3,47.4,138.21,23.94,24.58,36.31,0.04,-272.73,-272.73,-50,550,-918,18.8,14.3,-9.0,19.0,14.7,-8.5,5.73,2.33,-25.9,24.4
2012-05-11 01:50:00,0.0,1.8984,0.0011,404.94,0.43,80.7,48.6,138.21,23.95,24.58,36.31,0.04,-272.73,-272.73,-50,550,-919,18.8,14.3,-9.0,19.0,14.7,-8.4,5.73,2.35,-25.8,24.4
2012-05-11 01:51:00,0.0,1.8983,0.0012,404.87,0.41,67.9,47.2,138.21,23.95,24.58,36.32,0.04,-272.73,-272.73,-50,549,-919,18.8,14.2,-9.1,19.0,14.7,-8.5,5.73,2.48,-25.8,24.4
2012-05-11 01:52:00,0.0,1.8985,0.0009,404.93,0.39,69.4,41.9,138.21,23.95,24.59,36.31,0.04,-272.74,-272.73,-50,549,-918,18.8,14.2,-9.1,19.1,14.6,-8.5,5.73,2.34,-25.8,24.3
2012-05-11 01:53:00,0.0,1.8982,0.0009,404.89,0.38,78.8,44.8,138.21,23.96,24.58,36.31,0.04,-272.73,-272.73,-50,549,-918,18.8,14.2,-9.1,19.1,14.6,-8.5,5.73,2.34,-25.9,24.4
2012-05-11 01:54:00,0.0,1.8986,0.0011,404.93,0.43,77.9,40.6,138.21,23.96,24.58,36.31,0.04,-272.73,-272.74,-50,550,-918,18.8,14.2,-9.0,19.1,14.7,-8.5,5.73,2.48,-25.8,24.3
2012-05-11 01:55:00,0.0,1.8984,0.0010,404.86,0.48,87.0,43.3,138.21,23.96,24.59,36.31,0.04,-272.73,-272.74,-50,550,-918,18.8,14.3,-9.0,19.1,14.7,-8.4,5.73,2.34,-25.8,24.4
2012-05-11 01:56:00,0.0,1.8986,0.0010,404.79,0.31,84.9,40.8,138.21,23.96,24.59,36.32,0.04,-272.74,-272.73,-50,550,-919,18.8,14.3,-9.0,19.1,14.7,-8.4,5.73,2.34,-25.9,24.4
2012-05-11 01:57:00,0.0,1.8981,0.0011,404.88,0.42,84.0,47.2,138.21,23.97,24.59,36.31,0.04,-272.73,-272.73,-50,549,-918,18.8,14.2,-9.0,19.1,14.7,-8.5,5.73,2.48,-25.8,24.4
2012-05-11 01:58:00,0.0,1.8985,0.0010,404.85,0.39,67.7,46.3,138.21,23.97,24.58,36.31,0.04,-272.73,-272.73,-50,549,-918,18.8,14.1,-9.1,19.1,14.6,-8.5,5.73,2.36,-25.8,24.4
2012-05-11 01:59:00,0.0,1.8984,0.0011,404.80,0.41,80.0,50.3,138.21,23.97,24.59,36.31,0.04,-272.73,-272.74,-50,550,-918,18.9,14.1,-9.1,19.1,14.5,-8.6,5.73,2.32,-25.8,24.4
2012-05-11 02:00:00,0.0,1.8986,0.0012,404.93,0.40,84.1,46.7,138.21,23.97,24.59,36.31,0.04,-272.73,-272.73,-50,550,-918,18.9,14.1,-9.1,19.1,14.5,-8.6,5.73,2.46,-25.8,24.4
2012-05-11 02:01:00,0.0,1.8990,0.0011,404.95,0.42,85.6,49.1,138.21,23.97,24.58,36.32,0.04,-272.73,-272.73,-50,550,-918,18.8,14.0,-9.2,19.1,14.5,-8.6,5.73,2.39,-25.8,24.4
2012-05-11 02:02:00,0.0,1.8985,0.0008,404.82,0.41,91.0,40.0,138.21,23.98,24.59,36.31,0.04,-272.73,-272.73,-50,550,-918,18.8,13.9,-9.3,19.1,14.3,-8.8,5.73,2.30,-25.8,24.4
2012-05-11 02:03:00,0.0,1.8981,0.0010,404.76,0.40,96.4,42.6,138.21,23.98,24.59,36.32,0.04,-272.73,-272.73,-50,550,-918,18.8,14.0,-9.3,19.1,14.4,-8.7,5.73,2.44,-25.8,24.4
2012-05-11 02:04:00,0.0,1.8985,0.0010,404.88,0.41,94.6,35.3,138.21,23.98,24.59,36.31,0.04,-272.73,-272.73,-50,550,-918,18.9,14.0,-9.2,19.1,14.4,-8.7,5.73,2.42,-25.8,24.4
2012-05-11 02:05:00,0.0,1.8988,0.0012,404.79,0.36,91.7,39.5,138.20,23.99,24.58,36.32,0.04,-272.73,-272.74,-50,550,-918,18.9,14.0,-9.3,19.1,14.4,-8.7,5.73,2.29,-25.8,24.4
2012-05-11 02:06:00,0.0,1.8985,0.0012,404.87,0.47,79.4,40.8,138.21,23.99,24.59,36.31,0.04,-272.73,-272.74,-50,550,-919,18.9,13.9,-9.3,19.1,14.3,-8.7,5.73,2.42,-25.8,24.4
2012-05-11 02:07:00,0.0,1.8987,0.0010,404.94,0.42,83.3,50.6,138.21,23.99,24.58,36.31,0.04,-272.73,-272.73,-50,550,-918,18.9,14.0,-9.3,19.1,14.4,-8.7,5.73,2.45,-25.8,24.4
2012-05-11 02:08:00,0.0,1.8984,0.0012,404.92,0.47,73.2,42.5,138.20,23.99,24.58,36.32,0.04,-272.73,-272.74,-50,550,-918,18.9,14.0,-9.2,19.1,14.4,-8.6,5.73,2.32,-25.8,24.4
2012-05-11 02:09:00,0.0,1.8981,0.0011,404.83,0.39,68.6,43.5,138.21,23.99,24.59,36.32,0.04,-272.74,-272.73,-50,550,-918,18.9,14.0,-9.2,19.1,14.4,-8.6,5.73,2.36,-25.8,24.4
2012-05-11 02:10:00,0.0,1.8982,0.0010,404.95,0.50,70.1,47.5,138.20,24.00,24.59,36.32,0.04,-272.73,-272.74,-50,550,-918,18.8,13.9,-9.3,19.1,14.3,-8.7,5.73,2.47,-25.8,24.4
2012-05-11 02:11:00,0.0,1.8981,0.0010,404.85,0.37,77.4,45.6,138.21,24.00,24.58,36.31,0.04,-272.73,-272.73,-50,550,-918,18.9,13.9,-9.3,19.1,14.3,-8.8,5.73,2.35,-25.8,24.4
2012-05-11 02:12:00,0.0,1.8980,0.0012,404.94,0.40,62.7,45.7,138.21,24.00,24.58,36.31,0.04,-272.74,-272.74,-50,550,-919,18.9,13.9,-9.3,19.1,14.3,-8.7,5.73,2.32,-25.8,24.4
2012-05-11 02:13:00,0.0,1.8979,0.0010,404.74,0.45,71.4,46.3,138.21,24.00,24.59,36.31,0.04,-272.74,-272.74,-50,550,-918,18.9,14.0,-9.2,19.1,14.4,-8.6,5.73,2.45,-25.8,24.5
2012-05-11 02:14:00,0.0,1.8981,0.0012,404.92,0.40,72.7,44.1,138.20,24.00,24.58,36.31,0.04,-272.73,-272.73,-50,550,-918,18.8,14.1,-9.2,19.1,14.5,-8.6,5.73,2.42,-25.8,24.5
2012-05-11 02:15:00,0.0,1.8977,0.0011,404.84,0.38,69.5,45.6,138.21,24.00,24.58,36.31,0.04,-272.73,-272.74,-50,550,-918,18.8,14.0,-9.2,19.1,14.4,-8.6,5.73,2.31,-25.8,24.5
2012-05-11 02:16:00,0.0,1.8979,0.0011,404.91,0.44,80.5,45.8,138.20,24.01,24.58,36.31,0.04,-272.74,-272.74,-50,550,-918,18.9,14.0,-9.2,19.1,14.4,-8.6,5.73,2.39,-25.8,24.5
2012-05-11 02:17:00,0.0,1.8985,0.0011,404.86,0.43,84.6,48.6,138.20,24.01,24.58,36.31,0.04,-272.73,-272.73,-50,550,-918,18.9,14.1,-9.1,19.1,14.5,-8.5,5.73,2.46,-25.8,24.5